This is the latest recevied weather packets stored in our database for station/object KO6LQJ. If no packets are shown the sender has not sent any weather packets the latest 10 day(s).
| Time | Temp. | Humidity | Pressure | Rain* | Wind** | Luminosity | Snow |
|---|---|---|---|---|---|---|---|
| 1777644466 | 15.56° C | 75% | 1016.3 hPa | 0 mm | - | 21 W/m² | - |
| 1777644163 | 15.56° C | 75% | 1016.3 hPa | 0 mm | - | 18 W/m² | - |
| 1777643859 | 15° C | 75% | 1016.3 hPa | 0 mm | - | 18 W/m² | - |
| 1777643557 | 15° C | 75% | 1016.2 hPa | 0 mm | - | 19 W/m² | - |
| 1777643253 | 15° C | 75% | 1016.2 hPa | 0 mm | - | 15 W/m² | - |
| 1777642950 | 15° C | 75% | 1016.1 hPa | 0 mm | - | 12 W/m² | - |
| 1777642646 | 15° C | 75% | 1016.1 hPa | 0 mm | - | 9 W/m² | - |
| 1777642344 | 15° C | 76% | 1016.1 hPa | 0 mm | - | 7 W/m² | - |
| 1777642040 | 15° C | 76% | 1015.9 hPa | 0 mm | - | 6 W/m² | - |
| 1777641736 | 15° C | 76% | 1015.7 hPa | 0 mm | - | 3 W/m² | - |
| 1777641431 | 15° C | 76% | 1015.9 hPa | 0 mm | - | 1 W/m² | - |
| 1777641127 | 15° C | 76% | 1015.8 hPa | 0 mm | - | 0 W/m² | - |
| 1777640823 | 15° C | 76% | 1016 hPa | 0 mm | - | 0 W/m² | - |
| 1777640520 | 15° C | 76% | 1015.9 hPa | 0 mm | - | 0 W/m² | - |
| 1777640217 | 15° C | 76% | 1015.9 hPa | 0 mm | - | 0 W/m² | - |
| 1777639913 | 15° C | 76% | 1015.7 hPa | 0 mm | - | 0 W/m² | - |
| 1777639610 | 15° C | 76% | 1015.6 hPa | 0 mm | - | 0 W/m² | - |
| 1777639308 | 15° C | 76% | 1015.7 hPa | 0 mm | - | 0 W/m² | - |
| 1777639003 | 15° C | 76% | 1015.7 hPa | 0 mm | - | 0 W/m² | - |
| 1777638699 | 15° C | 76% | 1015.5 hPa | 0 mm | - | 0 W/m² | - |
| 1777638396 | 15° C | 77% | 1015.7 hPa | 0 mm | - | 0 W/m² | - |
| 1777638093 | 15° C | 76% | 1015.4 hPa | 0 mm | - | 0 W/m² | - |
| 1777637789 | 15° C | 76% | 1015.7 hPa | 0 mm | - | 0 W/m² | - |
| 1777637485 | 15° C | 77% | 1015.5 hPa | 0 mm | - | 0 W/m² | - |
| 1777637183 | 15° C | 77% | 1015.2 hPa | 0 mm | - | 0 W/m² | - |
* Rain latest hour (hover to see other rain measurements)
** Current wind speed in m/s (hover to see current wind gust speed)